This is the latest recevied weather packets stored in our database for station/object DJ0JJ-11. If no packets are shown the sender has not sent any weather packets the latest 10 day(s).
| Time | Temp. | Humidity | Pressure | Rain* | Wind** | Luminosity | Snow |
|---|---|---|---|---|---|---|---|
| 1777485487 | 17.78° C | 27% | 1022 hPa | - | - | - | - |
| 1777484587 | 19.44° C | 26% | 1021.8 hPa | - | - | - | - |
| 1777483686 | 18.89° C | 27% | 1021.8 hPa | - | - | - | - |
| 1777482786 | 18.89° C | 26% | 1021.6 hPa | - | - | - | - |
| 1777481886 | 19.44° C | 25% | 1021.6 hPa | - | - | - | - |
| 1777480986 | 20° C | 26% | 1021.6 hPa | - | - | - | - |
| 1777480086 | 20° C | 27% | 1021.5 hPa | - | - | - | - |
| 1777479186 | 20° C | 28% | 1021.5 hPa | - | - | - | - |
| 1777478285 | 20° C | 29% | 1021.4 hPa | - | - | - | - |
| 1777477385 | 20° C | 29% | 1021.3 hPa | - | - | - | - |
| 1777476485 | 20.56° C | 28% | 1021.3 hPa | - | - | - | - |
| 1777475585 | 20.56° C | 29% | 1021.3 hPa | - | - | - | - |
| 1777474685 | 20° C | 30% | 1021.2 hPa | - | - | - | - |
| 1777473785 | 20° C | 31% | 1021.3 hPa | - | - | - | - |
| 1777472885 | 20° C | 31% | 1021.3 hPa | - | - | - | - |
| 1777471984 | 20° C | 33% | 1021.2 hPa | - | - | - | - |
| 1777471084 | 20° C | 32% | 1021.3 hPa | - | - | - | - |
| 1777470184 | 20° C | 31% | 1021.4 hPa | - | - | - | - |
| 1777469284 | 20° C | 34% | 1021.4 hPa | - | - | - | - |
| 1777468384 | 19.44° C | 32% | 1021.4 hPa | - | - | - | - |
| 1777467484 | 19.44° C | 33% | 1021.5 hPa | - | - | - | - |
| 1777466584 | 19.44° C | 34% | 1021.5 hPa | - | - | - | - |
| 1777465684 | 18.89° C | 35% | 1021.5 hPa | - | - | - | - |
| 1777464783 | 18.89° C | 33% | 1021.4 hPa | - | - | - | - |
| 1777463883 | 18.89° C | 35% | 1021.6 hPa | - | - | - | - |
* Rain since midnight (hover to see other rain measurements)
** Current wind speed in m/s (hover to see current wind gust speed)